Weather History for Cordova, AK

Change the Weather History Date:

Saturday, March 2, 2013

  Actual Average Record
Temperature  
Mean Temperature 33 °F -  
Max Temperature 39 °F 35 °F 59 °F (1965)
Min Temperature 27 °F 17 °F -22 °F (1956)
Degree Days  
Heating Degree Days 32    
Moisture  
Dew Point 28 °F    
Average Humidity 85    
Maximum Humidity 96    
Minimum Humidity 65    
Precipitation  
Precipitation 0.00 in - - ()
Snow  
Snow 0.00 in - - ()
Snow Depth 4.00 in    
Sea Level Pressure  
Sea Level Pressure 30.02 in    
Wind  
Wind Speed 1 mph (WSW)    
Max Wind Speed 5 mph    
Max Gust Speed -    
Visibility 10 miles    
Events Snow    
Averages and records for this station are not official NWS values.
T = Trace of Precipitation, MM = Missing Value Source: NWS Daily Summary

Daily Weather History Graph

Daily Weather History Graph

Search for Another Location

Airport:

Trip Planner

Search our weather history database for the weather conditions in past years. The results will help you decide how hot, cold, wet, or windy it might be!

Date:

Astronomy

Mar. 02, 2013 Rise Set
Actual Time 7:36 AM AKST 6:12 PM AKST
Civil Twilight 6:54 AM AKST 6:54 PM AKST
Nautical Twilight 6:05 AM AKST 7:43 PM AKST
Astronomical Twilight 5:15 AM AKST 8:33 PM AKST
Moon 12:24 AM AKST (3/2) 8:36 AM AKST (3/2)
Length of Visible Light 12h 00m
Length of Day
10h 35m
Waning Gibbous, 72% of the Moon is Illuminated
Mar 2
Waning Gibbous
Mar 4
Last Quarter
Mar 11
New
Mar 19
First Quarter
Mar 27
Full

Hourly Weather History & Observations

Time (AKST) Temp. Windchill Dew Point Humidity Pressure Visibility Wind Dir Wind Speed Gust Speed Precip Events Conditions
12:53 AM 33.1 °F 28.7 °F 30.9 °F 92% 29.96 in 10.0 mi North 4.6 mph - 0.00 in   Overcast
1:53 AM 33.1 °F - 30.9 °F 92% 29.97 in 10.0 mi Calm Calm - N/A   Overcast
3:53 AM 32.0 °F - 30.9 °F 96% 29.96 in 10.0 mi Calm Calm - N/A   Overcast
4:53 AM 30.9 °F - 28.9 °F 92% 29.96 in 10.0 mi Calm Calm - N/A   Overcast
5:53 AM 30.0 °F - 28.0 °F 92% 29.96 in 10.0 mi Calm Calm - N/A   Scattered Clouds
6:53 AM 28.9 °F - 28.0 °F 96% 29.96 in 10.0 mi Calm Calm - N/A   Scattered Clouds
7:53 AM 27.0 °F - 25.0 °F 92% 29.96 in 10.0 mi Calm Calm - N/A   Scattered Clouds
8:53 AM 27.0 °F - 26.1 °F 96% 29.95 in 10.0 mi Calm Calm - N/A   Scattered Clouds
9:53 AM 30.9 °F - 30.0 °F 96% 29.96 in 10.0 mi Calm Calm - N/A   Partly Cloudy
10:53 AM 33.1 °F - 27.0 °F 78% 29.99 in 10.0 mi Calm Calm - N/A   Scattered Clouds
11:53 AM 36.0 °F - 28.0 °F 73% 30.00 in 10.0 mi Calm Calm - N/A   Scattered Clouds
12:53 PM 39.9 °F - 28.9 °F 65% 30.01 in 10.0 mi Calm Calm - N/A   Scattered Clouds
1:53 PM 39.9 °F 37.8 °F 28.9 °F 65% 30.01 in 10.0 mi South 3.5 mph - N/A   Scattered Clouds
2:53 PM 39.9 °F 37.8 °F 28.9 °F 65% 30.01 in 10.0 mi WSW 3.5 mph - N/A   Scattered Clouds
3:53 PM 39.0 °F 36.8 °F 28.0 °F 65% 30.02 in 10.0 mi WSW 3.5 mph - N/A   Mostly Cloudy
4:53 PM 37.9 °F 34.4 °F 28.9 °F 70% 30.02 in 10.0 mi WNW 4.6 mph - N/A   Mostly Cloudy
5:53 PM 35.1 °F - 28.9 °F 78% 30.05 in 10.0 mi Calm Calm - N/A   Partly Cloudy
6:53 PM 30.9 °F - 28.0 °F 89% 30.06 in 10.0 mi Calm Calm - N/A   Clear
7:53 PM 28.9 °F 23.9 °F 26.1 °F 89% 30.07 in 10.0 mi East 4.6 mph - N/A   Overcast
8:53 PM 30.0 °F - 28.0 °F 92% 30.08 in 10.0 mi Calm Calm - N/A   Overcast
9:53 PM 30.0 °F - 28.0 °F 92% 30.11 in 10.0 mi Calm Calm - N/A   Overcast
10:53 PM 30.9 °F - 28.9 °F 92% 30.13 in 10.0 mi Calm Calm - 0.00 in   Overcast
11:23 PM 30.2 °F - 28.4 °F 93% 30.14 in 4.0 mi Calm Calm - 0.00 in Snow Light Snow
11:39 PM 30.2 °F - 28.4 °F 93% 30.14 in 10.0 mi Calm Calm - 0.00 in   Overcast
11:53 PM 32.0 °F - 28.9 °F 88% 30.14 in 10.0 mi Calm Calm - 0.00 in   Overcast